Location: El Portezuelo
(28.4984°N, 16.3589°W)
Time: 17:18:01
(UTC+00:00)

SEDSat Delta rocket - Pass Details

Date: 20 January 2020
Orbit: 533 x 1000 km, 31.4° (Epoch: 19 February)

Event Time Altitude Azimuth Distance (km) Brightness Sun altitude
Exits shadow 05:47:06 66° 13° (NNE) 936 3.8 -28.5°
Drops below altitude 10° 05:52:28 10° 78° (ENE) 2,350 6.9 -27.4°
Sets 05:54:49 0° 81° (E) 3,204 7.8 -26.9°
